Race Results for
Carrerra Grande MBAA Race Series #1
Casa Grande, AZ
(Event Information)
View By:
This is a non-competitive event
Cross Country on 01/29/2000

Note: Ranking points are NOT upgrade points. An explanation of ranking points can be found here.


Men - Junior - JR - JuniorX

 Place NameCity, StateTime USAC #BibTeam
1Nathan Mitchell   Phoenix, AZ2:09:04 111851   
2TRISTAN SIEVE   Asheville, NC2:20:42 146940   
4Robert Chenal   Carefree, AZ2:26:38 109683   
5Josh Gibbons   Cottonwood, AZ 145126   
7Chad Cornell   Scottsdale, AZ 140859   

Men - Pro - Master

 Place NameCity, StateTime USAC #BibTeam
1David Wiens   Gunnison, CO1:52:00 38160   
2Scott Leonard   Vail, AZ1:59:48 107687   

Men - Pro - Senior

 Place NameCity, StateTime USAC #BibTeam
1Leonard Tullous   Tucson, AZ1:50:25 36057   
2Kevin Clegg   Tucson, AZ1:55:10 103663   
3Jacob Rubelt   Tucson, AZ1:55:52 79833   
4TERRENCE WYMAN   Arvada, CO1:56:50 16554   
5John Benson   Flagstaff, AZ1:58:15 98924   
6CODY WAITE   Elizabethtown, PA2:00:07 126151   
7John Vaught   Tucson, AZ2:01:54 106107   
8Chad Hummer   Phoenix, AZ2:02:44 17115   
9Todd Dellysse   Huntington, NY2:03:34 9135   
11Matt Baruch   Brooklyn, NY2:06:12 127141   
12Scott Arnold   Phoenix, AZ2:09:32 1957   
14David Herbold   Flagstaff, AZ 88165   
15Jeremy Bounds   Scottsdale, AZ 85352   

Men - EX - Senior - 19-27

 Place NameCity, StateTime USAC #BibTeam
1Tim Bolton   Tucson, AZ2:03:57 117086   
2Sean Kennedy   Tempe, AZ2:04:08 117470   
3Joshua Powers   Phoenix, AZ2:04:16 91975   
4Brandon Johnson   Queen Creek, AZ2:04:56 108140   
5Armando Neri   2:05:39 145365   
6Andrew Mesesan   Salida, CO2:06:28 123001   
7ERIC NICHOLAS   Colorado Spgs, CO2:07:39 126106   
8Steven Schaefer   Tucson, AZ2:08:13 78017   
9Scott Keller   Sedona, AZ2:08:41 125723   
10Eric Atwood   Sammamish, WA2:12:01 117706   
12Jason Suarez   Anthem, AZ2:12:38 126232   
13NATHAN WALLACE   Cortlandt Manor, NY2:18:11 28089   
14Andrew Stevens   Flagstaff, AZ2:18:29 132378   
15Brad VanOrden   Prescott, AZ2:21:35 140292   
16Amon Pease   Point Arena, CA2:21:46 82723   
17Ryan Gibson   Las Vegas, NV2:27:24 142890   
18NATHAN SHOPE   Phoenix, AZ2:31:27 126226   
19Jose Iniguez   Tucson, AZ 17388   
20John Salskov   Tempe, AZ 113251   
21Benjamin McKee   Tucson, AZ 108193   
22LEWIS ELLIOT   Tucson, AZ 58441   
23ZAC TUCKER   Falmouth, MA 133714   
24Mark Stiles   Tempe, AZ 139453   
25Toby Tsosie   El Paso, TX 127320   

Men - EX - Senior - 28-34

 Place NameCity, StateTime USAC #BibTeam
1MAX MORRIS   Kennesaw, GA2:01:50 125860   
3John Koenig   Phoenix, AZ2:03:43 121287   
4STEPHEN MARTIN   Rochester Hills, MI2:05:02 153648   
6Anthony Stroup   Albuquerque, NM2:05:51 88449   
7Mark McGill   Tempe, AZ2:06:15 109692   
8Brock Boring   Scottsdale, AZ2:06:40 134433   
9KIP MOYER   Santa Cruz, CA2:07:40 22451   
10Robert Johnson   Mesa, AZ2:08:04 128046   
11PETER MAGLIDT   Chandler, AZ2:08:58 107333   
12Grant Parris   Henderson, NV2:09:29 140858   
13MATT JOHNSON   Oklahoma City, OK2:10:43 135009   
14LUCIAN HAND   Boston, MA2:11:46 37574   
15Dan Esquivel   Scottsdale, AZ2:12:08 78230   
16Karl Waak   Clarkdale, AZ2:15:24 36840   
17Rene Ortega   Tucson, AZ2:17:20 127318   
19KEVIN BITTEN   Corvallis, OR2:24:12 37820   
20Estevan Sanchez   Flagstaff, AZ2:27:44 152919   
21CORY FAGERHOLM   Wadmalaw Island, SC2:31:14 53510   
22Brian Siebert   Tempe, AZ2:39:22 32604   
23ROBERT MIDDLEMORE   Albany, OR 150385   
24Joel Davis   N Las Vegas, NV 88515   

Men - EX - Master - 30-99

 Place NameCity, StateTime USAC #BibTeam
1STERLING GOIN   Albuquerque, NM1:15:02 56626   
2Dale Hoffman   Lk Havasu Cty, AZ1:38:29 137669   
3FRANK LIVELY   Reading, MA 24914   

Men - EX - Master - 35-39

 Place NameCity, StateTime USAC #BibTeam
1JOHN BARTH   Tolland, CT2:02:29 18176   
3Luke Nelson   Chandler, AZ2:03:39 25865   
5Brent Steiner   Mesa, AZ2:07:19 61688   
6Richard Moore   Tucson, AZ2:08:09 42022   
7Andre Goguen   Tucson, AZ2:10:19 40118   
8Stephen Townsley   Santa Fe, NM2:10:36 35832   
9Pete Kueffner   Las Vegas, NV2:10:38 19949   
10Jeffrey Welch   Lenoir, NC2:13:17 37647   
11Doug Boykin   Bayfield, CO2:15:52 142649   
12Tim Hohmann   Phoenix, AZ2:20:11 43003   
14Michael Thiele   Chandler, AZ 103312   

Men - EX - Master - 40-44

 Place NameCity, StateTime USAC #BibTeam
1Chuck Wheeler   Scottsdale, AZ2:02:46 37895   
2Michael Hines   Escondido, CA2:03:10 125061   
3Richard Hanning   Tucson, AZ2:06:08 142275   
4Jeff Armour   Phoenix, AZ2:06:13 1903   
5GARY DEWEESE   San Diego, CA2:08:33 128738   
6James Kirk   Tucson, AZ2:09:42 19256   
9Donald Lewis   Tucson, AZ2:16:09 21068   
10Ricky Eischen   Mesa, AZ2:17:39 87669   
11KEITH TOMEI   Louisville, KY2:24:20 7044   

Men - EX - Master - 45-54

 Place NameCity, StateTime USAC #BibTeam
1GARY STRABALA   Powell, WY1:36:09 13326   
2Wayne Gorry   Payson, AZ1:39:50 13741   
3William Decker   Chandler, AZ1:42:07 9020   
4William Sandercock   Phoenix, AZ1:42:45 31208   
5KEN MILLER   Apple Valley, MN1:43:29 126113   
6EDDIE ELLIS   Dallas, TX1:45:07 113562   
7Scott Lideen   Phoenix, AZ1:45:12 142637   
8MIKE KUNNECKE   Passaic, NJ1:46:23 165849   
9Mark Blackman   Flagstaff, AZ1:46:49 3846   
10Richard Brown   Phoenix, AZ1:48:01 121736   
11ROLPHE WHITE   Mill Valley, CA1:52:54 21403   
12Paul Cornell   Scottsdale, AZ1:54:27 121871   
13BRENT FISCHER   Tempe, AZ1:56:52 154516   
14Robert Williams   Scottsdale, AZ1:57:39 125738   

Men - SP - Senior - 19-27

 Place NameCity, StateTime USAC #BibTeam
2Chris Whaley   Phoenix, AZ1:34:35 127319   
3Sheldon Lindsey   Phoenix, AZ1:36:38 155585   
4Sean Aske   Phoenix, AZ1:38:26 153846   
7Jonah Sperando   Colorado Springs, CO1:40:12 141089   
8Jason Meininger   Durango, CO1:43:06 155022   
10Nicholas Cirincione   Colorado Springs, CO1:43:53 142652   
11Brian Smith   Phoenix, AZ1:43:59 142594   
12Robert Gibson   Tucson, AZ1:45:04 88270   
13Soren Ericksen   Tempe, AZ1:45:12 109029   
15DAVID BOGAN   1:46:58   
16Brian Jones   Tucson, AZ1:47:01 155583   
19Aaron Richardson   Tempe, AZ1:48:54 155570   
23Jason Vawter   Scottsdale, AZ1:51:49 142336   
24MICHAEL MCGUINN   Rohnert Park, CA1:52:38 5943   
25Nick Kollar   Sierra Vista, AZ1:52:40 85544   
28Chase Waddell   Oro Valley, AZ1:53:53 142647   
29Nathan Andrews   Phoenix, AZ1:54:25 42004   
30Paul Toufar   Hillsboro, OR1:54:27 155287   
31Kamden Reedy   Mesa, AZ1:55:01 155036   
32Kyle Huntress   Cave Creek, AZ1:55:40 155024   
33Don Eldridge   Mesa, AZ1:56:53 157555   
35Heath Pyle   Gilbert, AZ2:04:42 142308   
36CHRIS PEREZ   Rochester, NY2:04:42 152344   
40Ryan Stuber   Flagstaff, AZ 155563   
42Marc McCombs   Gilbert, AZ 135602   
44WILLIAM HEIDT   Phoenix, AZ 155903   

Men - SP - Senior - 28-34

 Place NameCity, StateTime USAC #BibTeam
1Dennis Fernandes   Phoenix, AZ1:35:47 154512   
2Daniel King   Phoenix, AZ1:35:47 154515   
3Robert Shaver   El Paso, TX1:36:13 56061   
4Daron Brotherton   Glendale, AZ1:36:23 155523   
7MICHAEL MIDDLETON   Hemet, CA1:37:40 165156   
8Thomas Pfafman   Phoenix, AZ1:37:56 113407   
9Ethan Granger   Scottsdale, AZ1:38:26 109462   
10Randy Zima   Gilbert, AZ1:39:26 154508   
11Paul Von Boeck   Tempe, AZ1:40:28 80475   
12Anthony Piazza   Mesa, AZ1:41:12 108192   
13Trever Bushnell   Phoenix, AZ1:41:14 5663   
14Jeffrey Traynor   Indian Hills, CO1:41:14 129176   
18John Velasco   Chandler, AZ1:43:09 144475   
20Tyson Manuel   Scottsdale, AZ1:43:19 155895   
21Gerard Prosnier   Scottsdale, AZ1:43:24 142188   
22Jeff Yapuncich   Tempe, AZ1:43:49 108149   
23KEITH ATKINS   Manhattan Bch, CA1:43:50 117114   
24Tom Spence   Tucson, AZ1:44:03 109461   
25Jeremy Olberding   Phoenix, AZ1:44:15 82142   
26Steve Madole   Kingman, AZ1:44:19 88514   
27Brad Hiland   Rolling Hills Estates, CA1:45:00 103163   
29Steven Rivers   Phoenix, AZ1:46:19 121446   
30Steven Bower   Phoenix, AZ1:46:42 142451   
31JOHN KIVETT   Mission Viejo, CA1:46:52 150333   
32Derek Parker   Peoria, AZ1:47:04 156753   
33Robert Bennett   Tucson, AZ1:47:26 144712   
34Cameron Bunt   Chandler, AZ1:47:31 154418   
36Thomas Cianelli   Helotes, TX1:49:10 6919   
37CHRIS POOLE   Washington, DC1:49:56 171078   
39Gregory Landers   Redding, CA1:51:21 129054   
40Chris Bowers   Wetumpka Al, AL1:51:30 156250   
41Mark Ahn   Phoenix, AZ1:51:44 142299   
42Anthony Martinez   Tempe, AZ1:51:56 142667   
43Charlie Ferer   Scottsdale, AZ1:54:38 125608   
45HOWARD SCHULER   Paxton, MA1:56:05 147340   
48Tim Phoenix   Pepperell, MA2:00:19 127897   
49Jon Ewing   Phoenix, AZ 140269   

Men - SP - Master - 30-99

 Place NameCity, StateTime USAC #BibTeam
1BOB NICKELSEN   Louisville, CO1:19:00 164755   
2Terry Brown   Sierra Vista, AZ1:24:16 5164   
3Dan Bingham   Cave Creek, AZ1:28:52 108682   
4Henry Adams   Tucson, AZ1:32:53 1137   

Men - SP - Master - 35-39

 Place NameCity, StateTime USAC #BibTeam
1Michael Bridschge   Coolidge, AZ1:35:55 48992   
2Eric Wilkey   Casa Grande, AZ1:36:11 140781   
3Daniel Mills   Avon, CO1:40:23 75854   
5Ernesto Gomez   1:41:09 145366   
6ED NEILSON   Idaho Falls, ID1:41:43 25738   
7Timothy Wilson   Phoenix, AZ1:42:57 126254   
9Paul Durazo   Chandler, AZ1:43:08 142310   
11Richard Bylsma   Casa Grande, AZ1:44:03 125711   
12PAUL CASEY   Encino, CA1:44:53 20775   
13Mark Venti   Mesa, AZ1:44:59 149570   
15JOHN MD WHITESIDE   Redding, CA 170845   
17Paul Torcoletti   Tempe, AZ1:47:14 126035   
18Steven Venable   Scottsdale, AZ1:47:20 41865   
19Arthur MacFarland   Cave Creek, AZ1:47:42 79108   
20Tad Fagerholm   Phoenix, AZ1:47:46 11161   
21George Sperry   Phoenix, AZ1:48:05 118062   
22Mark Bergenthal   Mesa, AZ1:48:07 3419   
23Lee Topic   Tempe, AZ1:48:37 125760   
24Cory Hove   Gilbert, AZ1:49:15 141110   
25Michael Abad   Phoenix, AZ1:50:12 43295   
26Rodney Larkin   Phoenix, AZ1:50:40 129125   
27Scott Anthony   Phoenix, AZ1:51:07 107969   
28Donald Magdon   Phoenix, AZ 107957   
29Andrew Karapelou   Phoenix, AZ1:51:21 142280   
30Tom Phielix   Tucson, AZ1:51:54 28021   
31John Birkett   Chandler, AZ1:53:46 140208   
32Randy Drayer   Lake Havasu Cty, AZ1:53:50 125289   
33David Irza   Waltham, MA1:54:57 126379   
35SCOTT MYDOCK   Hilliard, OH1:56:15 152222   
37William Phillips   Tucson, AZ1:59:13 125607   
38Paul Keene   Flagstaff, AZ1:59:42 145410   
39MARK FASCZEWSKI   Orlando, FL1:59:57 159207   
41VINCENT HUNT   Ketchum, ID 43771   
42Michael Nixon   Glendale, AZ 144457   
44KYLE FONDURULIA   Gilford, NH 71444   

Men - SP - Master - 40-44

 Place NameCity, StateTime USAC #BibTeam
1ALEX BRAKMO   1:39:15   
2Eric Fairfield   Tucson, AZ1:41:31 142268   
4Michael Marinshaw   Scottsdale, AZ1:41:48 126238   
5Dan Sanderson   Phoenix, AZ1:45:16 31233   
6Joe Hohmann   Phoenix, AZ1:45:17 16487   
7JOE BURTONI   Tijeras, NM1:46:00 21753   
8Kent Taylor   Casa Grande, AZ1:46:47 81287   
9Michael Bolding   Scottsdale, AZ1:49:14 4129   
10Dan Kravig   Scottsdale, AZ1:50:48 19798   
11Robert Boudreau   Glendale, AZ1:54:06 87666   
12Andy Geiger   Phoenix, AZ1:54:40 13010   
13DANIEL KURTH   Waterbury Ctr, VT1:58:24 18777   
14Artie Hauer   Phoenix, AZ2:00:56 144511   
15Robert Hammond   Chandler, AZ2:01:23 87649   
16Mark Shaw   Scottsdale, AZ2:02:32 32346   
17Manny Flores   Chandler, AZ2:03:22 142449   
18TIM SPICER   Lenox, MA2:10:04 109931   
20GLENN GLASS   Baltimore, MD 21597   
21JOE LOZON   Ft. Bragg, NC 153864   

Men - SP - Master - 45-54

 Place NameCity, StateTime USAC #BibTeam
1John Schaefer   Prescott, AZ1:07:31 141955   
3Richard Bauer   Phoenix, AZ1:09:17 75053   
4Tony Bartholoma   Phoenix, AZ1:09:19 2771   
5Michael Jones   Oro Valley, AZ1:09:24 133777   
8Brad Smith   Highlands Ranch, CO1:12:12 107723   
9Keene Johnson   Phoenix, AZ1:12:41 17979   
10Stephen Hughes   Scottsdale, AZ1:12:51 141111   
11Michael See   Gilbert, AZ1:13:48 125768   
12KENNY KING   Anderson, SC1:14:53 94154   
13John Fleming   Tucson, AZ1:15:30 155580   
14Don Rackey   Gilbert, AZ1:15:50 140203   
15Seth Dawson   Fountain Hills, AZ1:16:00 83280   
16Ted Falkowski   Tempe, AZ1:16:14 128032   
18Robert Meyer   Phoenix, AZ1:18:14 90461   
19Gary Epple   Tucson, AZ1:19:22 109698   
20Clifford Hummer   Gilbert, AZ1:19:46 40394   
21Kenneth Douglas   Casa Grande, AZ1:20:35 142646   
22Warren Swope   Phoenix, AZ1:21:37 107732   
23LEONARD TULLOUS SR   Queen Creek, AZ1:21:39 107735   
24Frank Loftus   Glendale, AZ1:23:14 85413   
25Warren Bezanson   Tucson, AZ1:23:24 109466   
26CHUCK LORENZINI   Boulder, CO1:23:25 37628   
28Charles King   Phoenix, AZ1:26:40 19154   
29Rocco Santigati   Mesa, AZ1:30:17 127872   

Men - BG - Senior - 19-24

 Place NameCity, StateTime USAC #BibTeam
8Adrian Chavez   Scottsdale, AZ1:25:10 155587   

Men - BG - Senior - 25-29

 Place NameCity, StateTime USAC #BibTeam
10Bryan Jensen   Phoenix, AZ1:14:33 78822   
11Matt French   Phoenix, AZ1:14:33 157544   
12Chris Hagen   Mesa, AZ1:15:06 155930   
14James Delaney   Phoenix, AZ1:18:35 100658   
19Bradley Dunagan   Carlsbad, CA1:19:19 150962   
20Joshua Person   Phoenix, AZ1:19:20 108584   
21Noe Gamez   Tucson, AZ1:20:32 109697   
26Tom Crosetti   Mesa, AZ1:21:30 156147   
33James VanVorst   Phoenix, AZ1:25:29 142329   
38Brandon Nelson   Phoenix, AZ1:27:43 142437   
45Noah Perius   Yuma, AZ1:44:44 140290   

Men - BG - Senior - 30-34

 Place NameCity, StateTime USAC #BibTeam
1Michael Gallivan   Phoenix, AZ1:09:36 155292   
6Leif Robinson   Tucson, AZ1:15:21 155908   
24Rick Boynton   Scottsdale, AZ1:20:16 142300   
36GERALD BIEHLE   Wakefield, MA1:24:59 74056   
40Steve Fisher   Tempe, AZ1:33:52 142668   

Men - BG - Master - 30-99

 Place NameCity, StateTime USAC #BibTeam
1Charles Dell   Chandler, AZ1:23:14 106952   
5CHUCK BOYER   Greenbrae, CA2:09:08 6531   

Men - BG - Master - 35-39

 Place NameCity, StateTime USAC #BibTeam
1JACK MCCORMACK   Canton, OH1:11:38 146870   
3Christopher Branson   Glendale, AZ1:12:50 155531   
8Jeff Ferin   Chandler, AZ1:14:17 142284   
10Jesse Ferrer   Star, ID1:14:26 165832   
11JOHN FRITZ   Fenton, MO1:14:46 75196   
12Scott Stewart   Peoria, AZ1:15:21 132794   
13Carlos Zamora   Phoenix, AZ1:15:33 52255   
18Ron Hart   Prescott, AZ1:18:17 153874   
25Gus Garcia   Gilbert, AZ1:21:20 145140   
33Christopher Macci   Phoenix, AZ1:27:02 88438   
40Robert Schiltz   Tucson, AZ1:40:26 141095   
42Eric Tollefson   Scottsdale, AZ1:47:47 109687   

Men - BG - Master - 40-44

 Place NameCity, StateTime USAC #BibTeam
1Carl Noeding   Mesa, AZ1:12:20 155579   
2Christopher Barkley   Mesa, AZ1:13:52 142314   
3Jim Auwen   Mesa, AZ1:14:21 2119   
4BRETT WILLIAMS   Phoenix, AZ1:16:15 28   
5Frank Sortelli   Tucson, AZ1:16:54 118945   
6Richard Sherlock   Phoenix, AZ1:17:27 155284   
8David Cosenza   Tempe, AZ1:19:13 85597   
14Stephen Noeding   Gilbert, AZ1:23:39 155552   
25TONY VERGA   Chadds Ford, PA1:31:14 54529   
29Moses Cruz   Tempe, AZ 132796   
30Bryan Park   Glendale, AZ 88435   

Men - BG - Master - 45-54

 Place NameCity, StateTime USAC #BibTeam
4RICHARD SURBER   Kalamazoo, MI1:19:43 80470   
5Rick Scott   Chandler, AZ1:20:28 154874   
6Wayne Fernandez   Prescott, AZ1:20:51 150970   
7Daniel Garrett   Scottsdale, AZ1:20:52 126230   
11Thomas Espey   Phoenix, AZ1:22:00 132409   
13Brad Green   Greer, AZ1:23:05 13995   
16Charles Wright   Phoenix, AZ1:25:26 106056   
18Barry Redshaw   Phoenix, AZ1:25:59 42064   
19Patrick McDermott   Chandler, AZ1:26:10 122713   
20Rich Petrus   Scottsdale, AZ1:27:13 140692   
21David Dorney   Phoenix, AZ1:27:18 154002   
24David Stephen   Tucson, AZ1:29:47 109517   
26Everett Beyer   Bosie, ID1:30:03 155191   
28BERNIE LACOTTA   Riverside, CA1:31:45 54658   
37William Dillard   Sierra Vista, AZ1:52:24 156548   
40David Stevens   Phoenix, AZ 112051   

Women - Pro - Senior

 Place NameCity, StateTime USAC #BibTeam
1Mary (Lanie) Mason   Paradise Valley, AZ1:42:00 83740   
2Dorea Henderson   Incline Village, NV1:42:54 120766   
3DARA MARKS   Flagstaff, AZ1:44:12 144461   
4Nikki Garza   Flagstaff, AZ1:45:56 127628   
5Gloria Cisneros   Tucson, AZ1:48:31 114615   

Women - EX - Senior - 19-27

 Place NameCity, StateTime USAC #BibTeam
1Lynn Dabbous   Phoenix, AZ1:46:52 142269   
2JENNIFER ANDERSON   Phoenix, AZ1:47:57 156145   
3Sage Grossi   Tempe, AZ1:57:51 146177   

Women - EX - Senior - 28-34

 Place NameCity, StateTime USAC #BibTeam
1Carie Wilson   Tempe, AZ1:51:02 126206   
2Juliane Mortello   Durango, CO1:51:53 142393   
3Colleen Venti   Mesa, AZ1:53:03 136875   
4Victoria Christensen   Flagstaff, AZ1:54:33 115060   
5Bryanna Leake   Sedona, AZ1:54:54 155934   
6Kim Alred   Tucson, AZ1:56:10 135441   
8Lila McFarland   Phoenix, AZ1:57:21 156249   
9Alicia Nicholas   Tucson, AZ2:00:59 126221   
10Michelle Thiry   Avondale, AZ 155299   
11Alacia Hutto   Tucson, AZ 87640   

Women - EX - Master - 35-44

 Place NameCity, StateTime USAC #BibTeam
1Carrie McCalvin   Phoenix, AZ1:52:11 155293   
2Mona Brilz   Phoenix, AZ1:52:58 77504   
3JANET KERBY   Sheridan, WY1:54:24 139880   
4Holly Annala   Crested Butte, CO1:57:35 157089   
5Carmen Bastek   Tempe, AZ1:58:18 2836   
6Deborah Wilson   Flagstaff, AZ 135499   

Women - SP - Senior - 19-27

 Place NameCity, StateTime USAC #BibTeam
2Spring Clegg   Tucson, AZ1:16:33 146109   

Women - SP - Senior - 28-34

 Place NameCity, StateTime USAC #BibTeam
1Megan French   Phoenix, AZ1:14:23 157545   
3Rochelle Scholz   Flagstaff, AZ1:17:39 155937   
5KRISTEN GUZMAN   Tucson, AZ1:19:01 156754   
6STEPHANY SATO   Avondale, AZ1:20:30 154051   
8Angela Barclay   Tucson, AZ1:21:31 155598   
9Michelle Weigman   Phoenix, AZ1:21:53 126794   
11LISA PIVIN   West Palm Bch, FL2:04:26 125118   

Women - SP - Master - 35-44

 Place NameCity, StateTime USAC #BibTeam
1MICHELLE FAIRFIELD   Tucson, AZ1:15:03 153169   
3Valerie Staffield   Phoenix, AZ1:18:11 71581   
5Wendy Macfarland   Chandler, AZ1:19:44 140863   
6Brenda Oberman   Scottsdale, AZ1:20:29 142203   
8Jodi Koller-Smee   Gilbert, AZ1:27:10 142202   
9CATHERINE TUTTLE   Willits, CA1:28:59 90629   
10Maria Spence   Tucson, AZ1:31:11 126758   
11Candace Holloway   Phoenix, AZ1:35:08 110212   

Women - SP - Master - 45-54

 Place NameCity, StateTime USAC #BibTeam
2Kay Tullous   Queen Creek, AZ1:41:19 107733   
3Laurie Stephen   Tucson, AZ1:43:26 155548   

Women - BG - Senior - 19-27

 Place NameCity, StateTime USAC #BibTeam
6Danielle DeCaro   Prescott Valley, AZ42:45:00 130465   
8Rebecca Voltmer   San Carlos, CA45:03:00 155016   
11Heather Feger   Flagstaff, AZ47:02:00 142303   

Women - BG - Senior - 28-34

 Place NameCity, StateTime USAC #BibTeam
1Sheri Wallace   Tempe, AZ42:47:00 156153   

Women - BG - Master - 35-44

 Place NameCity, StateTime USAC #BibTeam
4SHELLY GLASS   Phoenix, AZ45:07:00 164487   
5Kim Hedden   Phoenix, AZ45:24:00 67991   
6Cindy Mydock   Glendale, AZ45:39:00 106946   
15Mary Burnett   Chandler, AZ52:40:00 142654   
18Janet Brewster   Phoenix, AZ56:13:00 141234   

Women - BG - Master - 45-54

 Place NameCity, StateTime USAC #BibTeam
1Lynda Fisher   Tempe, AZ50:55:00 140913   

Report missing or incorrect license numbers

Volkswagen
Sierra NevadaBonk BreakerSpyUSACDFShimano
UCI USA Cycling is the official governing body for all disciplines of competitive cycling in the United States. The 501c3, membership-based organization aims both to achieve sustained success in international cycling competition and to grow competitive cycling in America while delivering an exceptional customer experience.
View Children's Online Privacy Protection Policy
US Olympic Committee